Location: Les Coudrans
(46.1056°N, 1.1158°W)
Time: 14:50:13
(UTC+00:00)

Cosmos 2333 Rocket - Pass Details

Date: 03 March 2021
Orbit: 837 x 864 km, 70.8° (Epoch: 19 April)

Event Time Altitude Azimuth Distance (km) Brightness Sun altitude
Rises 20:29:41 0° 215° (SW) 3,388 5.5 -27.4°
Reaches altitude 10° 20:32:09 10° 218° (SW) 2,461 4.8 -27.8°
Maximum altitude 20:37:45 64° 300° (WNW) 942 2.5 -28.7°
Drops below altitude 10° 20:43:27 10° 22° (NNE) 2,494 4.6 -29.6°
Sets 20:45:57 0° 25° (NNE) 3,439 5.4 -30.0°
